| time (UTC) | temp F | wind direction | speed MPH | gust MPH | rain 1hr in | rain 24hr in | rain mn in | humidity % | barometer mb |
| 20260506131017 | 70 | 248 | 2.0 | 5.0 | 0.00 | 0.69 | 0.65 | 49 | 1007.5 |
| 20260506130017 | 70 | 113 | 2.0 | 9.0 | 0.00 | 0.69 | 0.65 | 48 | 1007.7 |
| 20260506125016 | 70 | 113 | 4.0 | 11.0 | 0.00 | 0.69 | 0.65 | 49 | 1007.6 |
| 20260506124017 | 70 | 225 | 4.0 | 9.0 | 0.00 | 0.69 | 0.65 | 48 | 1007.6 |
| 20260506123016 | 70 | 248 | 2.0 | 7.0 | 0.00 | 0.70 | 0.65 | 50 | 1007.6 |
| 20260506122016 | 69 | 113 | 2.0 | 8.0 | 0.00 | 0.70 | 0.65 | 54 | 1007.7 |
| 20260506121057 | 68 | 203 | 2.0 | 7.0 | 0.00 | 0.71 | 0.65 | 57 | 1007.8 |
| 20260506120016 | 68 | 203 | 3.0 | 10.0 | 0.00 | 0.71 | 0.65 | 54 | 1007.9 |
| 20260506115016 | 68 | 225 | 2.0 | 8.0 | 0.00 | 0.71 | 0.65 | 58 | 1008.0 |
| 20260506114036 | 68 | 225 | 4.0 | 10.0 | 0.00 | 0.71 | 0.65 | 60 | 1008.2 |
| 20260506113016 | 67 | 23 | 2.0 | 6.0 | 0.00 | 0.71 | 0.65 | 62 | 1008.2 |
| 20260506112016 | 66 | 180 | 2.0 | 11.0 | 0.00 | 0.71 | 0.65 | 65 | 1008.4 |
| 20260506111016 | 66 | 248 | 2.0 | 5.0 | 0.00 | 0.71 | 0.65 | 67 | 1008.4 |
| 20260506110016 | 64 | 248 | 2.0 | 7.0 | 0.00 | 0.71 | 0.65 | 68 | 1008.5 |
| 20260506105016 | 64 | 180 | 1.0 | 6.0 | 0.00 | 0.71 | 0.65 | 71 | 1008.6 |
| 20260506104017 | 64 | 248 | 2.0 | 9.0 | 0.00 | 0.71 | 0.65 | 69 | 1008.7 |
| 20260506103016 | 64 | 225 | 3.0 | 8.0 | 0.00 | 0.71 | 0.65 | 71 | 1008.6 |
| 20260506102036 | 64 | 113 | 2.0 | 5.0 | 0.00 | 0.71 | 0.65 | 70 | 1008.6 |
| 20260506101016 | 65 | 248 | 2.0 | 9.0 | 0.00 | 0.71 | 0.65 | 72 | 1008.7 |
| 20260506100017 | 64 | 225 | 2.0 | 7.0 | 0.00 | 0.72 | 0.65 | 73 | 1008.6 |
| 20260506095016 | 63 | 248 | 2.0 | 6.0 | 0.00 | 0.72 | 0.65 | 74 | 1008.8 |
| 20260506094016 | 62 | 225 | 1.0 | 7.0 | 0.00 | 0.72 | 0.65 | 77 | 1008.8 |
| 20260506093036 | 62 | 248 | 2.0 | 7.0 | 0.00 | 0.72 | 0.65 | 76 | 1008.8 |
| 20260506092016 | 62 | 248 | 2.0 | 6.0 | 0.00 | 0.72 | 0.65 | 76 | 1008.8 |
| 20260506091016 | 62 | 203 | 2.0 | 5.0 | 0.00 | 0.72 | 0.65 | 79 | 1008.8 |
| 20260506090016 | 61 | 225 | 2.0 | 7.0 | 0.00 | 0.72 | 0.65 | 80 | 1008.6 |
| 20260506085016 | 61 | 90 | 3.0 | 8.0 | 0.00 | 0.73 | 0.65 | 82 | 1008.6 |
| 20260506084017 | 60 | 203 | 3.0 | 8.0 | 0.00 | 0.76 | 0.65 | 84 | 1008.5 |
| 20260506083016 | 61 | 225 | 4.0 | 11.0 | 0.00 | 0.76 | 0.65 | 87 | 1008.6 |
| 20260506082015 | 60 | 113 | 1.0 | 9.0 | 0.00 | 0.77 | 0.65 | 91 | 1008.4 |
| 20260506081015 | 59 | 203 | 2.0 | 7.0 | 0.00 | 0.77 | 0.65 | 92 | 1008.4 |
| 20260506073015 | 57 | 113 | 1.0 | 6.0 | 0.01 | 0.81 | 0.65 | 94 | 1008.4 |
| 20260506072017 | 55 | 0.0 | 0.0 | 0.02 | 0.81 | 0.65 | 94 | 1008.5 | |
| 20260506071015 | 55 | 0.0 | 1.0 | 0.03 | 0.81 | 0.65 | 94 | 1008.5 | |
| 20260506062017 | 54 | 0.0 | 0.0 | 0.02 | 0.80 | 0.62 | 93 | 1008.3 | |
| 20260506061057 | 54 | 0.0 | 1.0 | 0.02 | 0.79 | 0.61 | 93 | 1008.3 | |
| 20260506051017 | 52 | 0.0 | 0.0 | 0.00 | 0.77 | 0.60 | 93 | 1007.6 | |
| 20260506045019 | 52 | 0.0 | 0.0 | 0.00 | 0.92 | 0.60 | 93 | 1007.5 | |
| 20260506044017 | 52 | 0.0 | 0.0 | 0.00 | 0.92 | 0.60 | 93 | 1007.5 | |
| 20260506043017 | 52 | 0.0 | 0.0 | 0.00 | 0.93 | 0.60 | 93 | 1007.5 | |
| 20260506042017 | 52 | 0.0 | 0.0 | 0.00 | 0.93 | 0.60 | 93 | 1007.5 | |
| 20260506041017 | 52 | 0.0 | 1.0 | 0.00 | 0.93 | 0.60 | 93 | 1007.6 | |
| 20260506040018 | 52 | 0.0 | 0.0 | 0.01 | 0.93 | 0.60 | 93 | 1007.6 | |
| 20260506035017 | 52 | 0.0 | 0.0 | 0.02 | 0.93 | 0.60 | 92 | 1007.5 | |
| 20260506034017 | 52 | 0.0 | 0.0 | 0.04 | 0.93 | 0.60 | 92 | 1007.6 | |
| 20260506033017 | 52 | 0.0 | 2.0 | 0.06 | 0.93 | 0.60 | 93 | 1007.7 | |
| 20260506032017 | 52 | 0.0 | 1.0 | 0.06 | 0.93 | 0.60 | 92 | 1007.7 | |
| 20260506031017 | 52 | 0.0 | 2.0 | 0.09 | 0.93 | 0.60 | 92 | 1007.9 | |
| 20260506030017 | 52 | 0.0 | 0.0 | 0.14 | 0.92 | 0.59 | 92 | 1008.0 | |
| 20260506025037 | 52 | 0.0 | 0.0 | 0.17 | 0.91 | 0.57 | 92 | 1008.3 | |
| 20260506024017 | 52 | 0.0 | 0.0 | 0.17 | 0.89 | 0.56 | 92 | 1008.3 | |
| 20260506023017 | 52 | 0.0 | 1.0 | 0.15 | 0.87 | 0.54 | 92 | 1008.4 | |
| 20260506022017 | 52 | 0.0 | 0.0 | 0.14 | 0.87 | 0.54 | 92 | 1008.4 | |
| 20260506021039 | 52 | 0.0 | 1.0 | 0.12 | 0.84 | 0.50 | 92 | 1008.4 | |
| 20260506020017 | 52 | 248 | 1.0 | 3.0 | 0.06 | 0.79 | 0.45 | 92 | 1008.2 |
| 20260506015018 | 52 | 0.0 | 1.0 | 0.04 | 0.75 | 0.41 | 92 | 1008.0 | |
| 20260506014016 | 52 | 0.0 | 0.0 | 0.03 | 0.74 | 0.39 | 91 | 1008.0 | |
| 20260506013038 | 52 | 0.0 | 2.0 | 0.03 | 0.76 | 0.39 | 91 | 1007.6 | |
| 20260506012017 | 53 | 0.0 | 0.0 | 0.03 | 0.85 | 0.39 | 91 | 1007.5 | |
| 20260506011016 | 53 | 0.0 | 0.0 | 0.02 | 0.92 | 0.39 | 91 | 1007.8 | |
| 20260506010017 | 52 | 0.0 | 1.0 | 0.02 | 0.98 | 0.39 | 91 | 1008.2 | |
| 20260506005016 | 52 | 0.0 | 0.0 | 0.01 | 1.02 | 0.37 | 91 | 1008.5 | |
| 20260506004037 | 52 | 315 | 1.0 | 3.0 | 0.00 | 1.05 | 0.36 | 91 | 1008.4 |
| 20260506003058 | 53 | 0.0 | 2.0 | 0.00 | 1.07 | 0.36 | 91 | 1008.3 | |
| 20260506002057 | 52 | 0.0 | 0.0 | 0.00 | 1.09 | 0.36 | 91 | 1008.3 | |
| 20260506001016 | 52 | 0.0 | 1.0 | 0.00 | 1.11 | 0.36 | 91 | 1008.7 | |
| 20260506000017 | 52 | 0.0 | 1.0 | 0.03 | 1.12 | 0.36 | 91 | 1008.8 | |
| 20260505235036 | 53 | 0.0 | 2.0 | 0.09 | 1.13 | 0.36 | 91 | 1008.9 | |
| 20260505234017 | 53 | 293 | 1.0 | 3.0 | 0.16 | 1.14 | 0.36 | 91 | 1009.0 |
| 20260505233016 | 54 | 0.0 | 2.0 | 0.21 | 1.16 | 0.36 | 92 | 1009.3 | |
| 20260505232017 | 54 | 0.0 | 2.0 | 0.25 | 1.17 | 0.36 | 91 | 1009.5 | |
| 20260505231016 | 54 | 0.0 | 1.0 | 0.31 | 1.17 | 0.36 | 92 | 1010.0 | |
| 20260505230017 | 54 | 0.0 | 2.0 | 0.33 | 1.14 | 0.33 | 92 | 1010.6 | |
| 20260505225016 | 54 | 0.0 | 0.0 | 0.31 | 1.09 | 0.28 | 91 | 1010.7 | |
| 20260505224016 | 55 | 203 | 1.0 | 3.0 | 0.24 | 1.02 | 0.20 | 91 | 1011.3 |
| 20260505223036 | 55 | 0.0 | 0.0 | 0.19 | 0.97 | 0.15 | 91 | 1010.9 | |
| 20260505222016 | 55 | 0.0 | 3.0 | 0.15 | 0.93 | 0.11 | 91 | 1011.0 | |
| 20260505221016 | 55 | 0.0 | 1.0 | 0.09 | 0.87 | 0.06 | 91 | 1011.1 | |
| 20260505220016 | 55 | 0.0 | 0.0 | 0.04 | 0.82 | 0.82 | 91 | 1011.1 | |
| 20260505215016 | 55 | 0.0 | 0.0 | 0.01 | 0.79 | 0.79 | 91 | 1010.9 | |
| 20260505214016 | 55 | 0.0 | 0.0 | 0.00 | 0.78 | 0.78 | 90 | 1010.6 | |
| 20260505213016 | 55 | 0.0 | 0.0 | 0.00 | 0.78 | 0.78 | 90 | 1010.9 | |
| 20260505212016 | 55 | 0.0 | 0.0 | 0.00 | 0.78 | 0.78 | 90 | 1011.1 | |
| 20260505211118 | 55 | 0.0 | 0.0 | 0.00 | 0.78 | 0.78 | 90 | 1011.4 | |
| 20260505210017 | 55 | 0.0 | 0.0 | 0.00 | 0.78 | 0.78 | 90 | 1011.5 | |
| 20260505205036 | 55 | 0.0 | 1.0 | 0.00 | 0.78 | 0.78 | 90 | 1011.3 | |
| 20260505204016 | 55 | 0.0 | 1.0 | 0.00 | 0.78 | 0.78 | 89 | 1011.3 | |
| 20260505203016 | 55 | 0.0 | 0.0 | 0.00 | 0.80 | 0.78 | 89 | 1011.3 | |
| 20260505202056 | 55 | 0.0 | 0.0 | 0.00 | 0.83 | 0.78 | 89 | 1011.0 | |
| 20260505201016 | 55 | 0.0 | 0.0 | 0.00 | 0.87 | 0.78 | 89 | 1011.1 | |
| 20260505200016 | 55 | 0.0 | 1.0 | 0.00 | 0.87 | 0.78 | 89 | 1011.1 | |
| 20260505195016 | 55 | 0.0 | 0.0 | 0.00 | 0.87 | 0.78 | 88 | 1011.2 | |
| 20260505194015 | 56 | 0.0 | 0.0 | 0.00 | 0.87 | 0.78 | 88 | 1011.2 | |
| 20260505193016 | 57 | 0.0 | 0.0 | 0.00 | 0.88 | 0.78 | 88 | 1011.1 | |
| 20260505192016 | 58 | 0.0 | 1.0 | 0.00 | 0.88 | 0.78 | 88 | 1010.9 | |
| 20260505191016 | 58 | 0.0 | 0.0 | 0.00 | 0.90 | 0.78 | 88 | 1010.8 | |
| 20260505190017 | 58 | 0.0 | 0.0 | 0.00 | 0.91 | 0.78 | 88 | 1010.6 | |
| 20260505185016 | 59 | 0.0 | 0.0 | 0.00 | 0.91 | 0.78 | 88 | 1010.9 | |
| 20260505184016 | 59 | 0.0 | 0.0 | 0.00 | 0.91 | 0.78 | 88 | 1011.0 | |
| 20260505183015 | 59 | 0.0 | 0.0 | 0.00 | 0.91 | 0.78 | 88 | 1011.0 | |
| 20260505182015 | 60 | 0.0 | 0.0 | 0.00 | 0.91 | 0.78 | 88 | 1011.0 | |
| 20260505181015 | 60 | 0.0 | 0.0 | 0.00 | 0.91 | 0.78 | 88 | 1010.8 | |
| 20260505180017 | 60 | 0.0 | 0.0 | 0.00 | 0.91 | 0.78 | 88 | 1010.8 | |
| 20260505175017 | 60 | 0.0 | 0.0 | 0.00 | 0.92 | 0.78 | 89 | 1010.9 | |
| 20260505174017 | 60 | 0.0 | 1.0 | 0.00 | 0.96 | 0.78 | 89 | 1010.9 | |
| 20260505173017 | 61 | 0.0 | 0.0 | 0.00 | 0.97 | 0.78 | 89 | 1010.9 | |
| 20260505172017 | 61 | 0.0 | 0.0 | 0.00 | 0.97 | 0.78 | 88 | 1011.0 | |
| 20260505171017 | 61 | 0.0 | 0.0 | 0.00 | 0.98 | 0.78 | 88 | 1011.2 | |
| 20260505170036 | 61 | 0.0 | 0.0 | 0.00 | 0.98 | 0.78 | 88 | 1011.1 | |
| 20260505165040 | 61 | 0.0 | 0.0 | 0.00 | 0.98 | 0.78 | 87 | 1011.1 | |
| 20260505164017 | 62 | 0.0 | 0.0 | 0.00 | 0.98 | 0.78 | 87 | 1011.2 | |
| 20260505163038 | 62 | 0.0 | 0.0 | 0.00 | 0.98 | 0.78 | 88 | 1011.2 | |
| 20260505162057 | 62 | 0.0 | 0.0 | 0.00 | 0.98 | 0.78 | 87 | 1011.3 | |
| 20260505161017 | 62 | 0.0 | 0.0 | 0.00 | 0.99 | 0.78 | 87 | 1011.1 | |
| 20260505153018 | 62 | 113 | 1.0 | 3.0 | 0.00 | 1.00 | 0.78 | 87 | 1011.3 |
| 20260505152017 | 62 | 225 | 1.0 | 3.0 | 0.00 | 1.00 | 0.78 | 88 | 1011.1 |
| 20260505151017 | 62 | 225 | 1.0 | 2.0 | 0.00 | 1.00 | 0.78 | 90 | 1011.0 |